Beaufort, NC

7:48 AM EST on February 08, 2016 (GMT -0500)
Smith

Weather History for KMRH - November, 2011

Change the Weather History Date:

Wednesday, November 23, 2011

  Actual Average Record
Temperature  
Mean Temperature 64 °F -  
Max Temperature 72 °F 63 °F 77 °F (1979)
Min Temperature 55 °F 42 °F 25 °F (1976)
Degree Days  
Heating Degree Days 2    
Growing Degree Days 14 (Base 50)    
Moisture  
Dew Point 61 °F    
Average Humidity 83    
Maximum Humidity 100    
Minimum Humidity 51    
Precipitation  
Precipitation 0.23 in - - ()
Sea Level Pressure  
Sea Level Pressure 29.85 in    
Wind  
Wind Speed 16 mph (WSW)    
Max Wind Speed 26 mph    
Max Gust Speed 37 mph    
Visibility 8 miles    
Events Rain    
Averages and records for this station are not official NWS values.
T = Trace of Precipitation, MM = Missing Value Source: NWS Daily Summary

Daily Weather History Graph

Daily Weather History Graph

Search for Another Location

Airport or City:

Trip Planner

Search our weather history database for the weather conditions in past years. The results will help you decide how hot, cold, wet, or windy it might be!

Date:

Astronomy

Nov. 23, 2011 Rise Set
Actual Time 6:47 AM EST 4:57 PM EST
Civil Twilight 6:20 AM EST 5:24 PM EST
Nautical Twilight 5:49 AM EST 5:55 PM EST
Astronomical Twilight 5:19 AM EST 6:25 PM EST
Moon 4:51 AM EST (11/23) 3:36 PM EST (11/23)
Length of Visible Light 11h 04m
Length of Day
10h 09m
Waning Crescent, 4% of the Moon is Illuminated
Nov 23
Waning Crescent
Nov 25
New
Dec 2
First Quarter
Dec 10
Full
Dec 17
Last Quarter

Hourly Weather History & Observations

Time (EST) Temp. Dew Point Humidity Pressure Visibility Wind Dir Wind Speed Gust Speed Precip Events Conditions
12:56 AM 66.9 °F 64.0 °F 90% 30.01 in 10.0 mi South 11.5 mph - N/A   Mostly Cloudy
1:56 AM 68.0 °F 64.0 °F 87% 29.99 in 10.0 mi SSW 11.5 mph - N/A   Clear
2:56 AM 68.0 °F 64.0 °F 87% 29.95 in 10.0 mi South 12.7 mph - N/A   Mostly Cloudy
3:56 AM 69.1 °F 64.9 °F 87% 29.90 in 10.0 mi SSW 20.7 mph 26.5 mph N/A   Mostly Cloudy
4:56 AM 69.1 °F 64.9 °F 87% 29.88 in 9.0 mi SSW 13.8 mph - N/A   Overcast
5:13 AM 69.8 °F 64.4 °F 83% 29.86 in 8.0 mi SSW 16.1 mph - 0.00 in Rain Light Rain
5:54 AM 69.8 °F 66.2 °F 88% 29.85 in 9.0 mi SSW 18.4 mph 27.6 mph 0.01 in   Overcast
5:56 AM 69.1 °F 66.0 °F 90% 29.85 in 9.0 mi SSW 17.3 mph - 0.01 in   Overcast
6:07 AM 69.8 °F 66.2 °F 88% 29.85 in 8.0 mi SSW 19.6 mph 27.6 mph N/A   Mostly Cloudy
6:56 AM 69.1 °F 66.0 °F 90% 29.85 in 8.0 mi SW 20.7 mph 26.5 mph N/A   Mostly Cloudy
7:28 AM 69.8 °F 66.2 °F 88% 29.86 in 3.0 mi WSW 25.3 mph 34.5 mph 0.06 in Rain Heavy Rain
7:30 AM 69.8 °F 66.2 °F 88% 29.86 in 2.5 mi WSW 25.3 mph 34.5 mph 0.07 in Rain Heavy Rain
7:48 AM 66.2 °F 64.4 °F 94% 29.85 in 2.5 mi WSW 23.0 mph 36.8 mph 0.16 in Rain Heavy Rain
7:56 AM 66.9 °F 66.0 °F 97% 29.85 in 3.0 mi WSW 19.6 mph 33.4 mph 0.19 in Rain Rain
8:04 AM 66.2 °F 66.2 °F 100% 29.84 in 4.0 mi WSW 17.3 mph 28.8 mph 0.02 in   Overcast
8:19 AM 66.2 °F 64.4 °F 94% 29.83 in 4.0 mi WSW 17.3 mph 26.5 mph 0.02 in   Overcast
8:28 AM 66.2 °F 64.4 °F 94% 29.83 in 5.0 mi WSW 17.3 mph 26.5 mph 0.02 in   Overcast
8:56 AM 66.9 °F 64.9 °F 93% 29.82 in 7.0 mi SW 18.4 mph 27.6 mph 0.02 in Rain Light Rain
9:49 AM 66.2 °F 64.4 °F 94% 29.81 in 6.0 mi SW 13.8 mph - 0.01 in   Mostly Cloudy
9:56 AM 66.0 °F 64.9 °F 96% 29.82 in 5.0 mi SW 17.3 mph - 0.01 in   Mostly Cloudy
10:56 AM 66.0 °F 64.0 °F 93% 29.79 in 6.0 mi SW 16.1 mph - N/A   Overcast
11:36 AM 66.2 °F 64.4 °F 94% 29.77 in 7.0 mi SW 15.0 mph - N/A   Overcast
11:45 AM 66.2 °F 64.4 °F 94% 29.76 in 7.0 mi WSW 12.7 mph 20.7 mph N/A   Mostly Cloudy
11:56 AM 66.9 °F 64.0 °F 90% 29.76 in 7.0 mi WSW 12.7 mph - N/A   Partly Cloudy
12:56 PM 69.1 °F 64.9 °F 87% 29.74 in 8.0 mi SW 12.7 mph - N/A   Partly Cloudy
1:56 PM 69.1 °F 64.0 °F 84% 29.72 in 9.0 mi SW 16.1 mph 24.2 mph N/A   Clear
2:56 PM 66.9 °F 62.1 °F 84% 29.73 in 9.0 mi WSW 12.7 mph - N/A   Mostly Cloudy
3:56 PM 72.0 °F 57.9 °F 61% 29.73 in 10.0 mi West 16.1 mph - N/A   Clear
4:56 PM 70.0 °F 57.0 °F 63% 29.75 in 10.0 mi WNW 11.5 mph - N/A   Mostly Cloudy
5:56 PM 64.0 °F 48.0 °F 56% 29.82 in 10.0 mi NNW 26.5 mph 33.4 mph N/A   Mostly Cloudy
8:56 PM 57.0 °F 39.9 °F 53% 29.96 in 10.0 mi NNW 15.0 mph 26.5 mph N/A   Mostly Cloudy
9:56 PM 57.0 °F 39.0 °F 51% 29.99 in 10.0 mi NNW 20.7 mph 27.6 mph N/A   Overcast
10:56 PM 55.9 °F 39.0 °F 53% 30.00 in 10.0 mi NNW 23.0 mph 32.2 mph N/A   Overcast
11:56 PM 55.0 °F 37.0 °F 51% 30.02 in 10.0 mi NNW 23.0 mph 27.6 mph N/A   Overcast